Regional Weather Roundup
Issued by NWS Charleston, SC

Current Version | Previous Version | Graphics & Text | Print | Product List | Glossary On
Versions: 1 2 3 4 5 6 7 8 9 10 11 12 13 14 15 16 17 18 19 20 21 22 23 24 25 26 27 28 29 30 31 32 33 34 35 36 37 38 39 40 41 42 43 44 45 46 47 48 49 50
000 ASUS42 KCHS 180512 RWRCHS Regional Weather Roundup National Weather Service Charleston SC 1200 AM EST MON DEC 18 2017 NOTE: "fair" indicates few or no clouds below 12,000 feet with no significant weather and/or obstructions to visibility. Not all stations are quality controlled. Use data with caution, especially dewpoint observations. SCZ027-030-031-034>040-042>050-180600- ...Southeast South Carolina... CITY SKY/WX TMP DP RH WIND PRES REMARKS N Charleston PTCLDY 53 49 86 CALM 30.18F Waterfront Prk N/A 55 51 86 CALM 30.04F Mount Pleasant FAIR 54 50 87 CALM 30.19F Johns Island CLOUDY 55 52 88 CALM 30.18F Pinopolis N/A 54 50 87 CALM 30.10F Moncks Corner FAIR 54 48 82 CALM 30.18F Summerville MOCLDY 52 46 82 CALM 30.20S Beaufort MCAS PTCLDY 53 50 89 CALM 30.19S Beaufort Arpt FAIR 52 50 93 CALM 30.18F FOG Hilton Head Is PTCLDY 55 54 94 SW5 30.20R Walterboro CLOUDY 52 46 82 CALM 30.20S Allendale CLOUDY 55 46 71 CALM 30.18S ...Southern Midlands and Pee Dee... CITY SKY/WX TMP DP RH WIND PRES REMARKS Georgetown MOCLDY 52 52 100 CALM 30.20F Kingstree CLOUDY 52 45 76 CALM 30.19F Orangeburg CLOUDY 55 42 61 CALM 30.18F Barnwell N/A 57 45 62 CALM 30.18S Aiken CLOUDY 52 37 58 NE3 30.21S Manning CLOUDY 52 32 46 MISG 30.19F Columbia CLOUDY 55 41 59 CALM 30.18F Sumter CLOUDY 53 36 53 CALM 30.17F Florence CLOUDY 53 40 61 CALM 30.20F Myrtle Beach CLOUDY 55 51 86 SE5 30.21F N Myrtle Beach LGT RAIN 53 49 86 CALM 30.20F $$ GAZ063-065-086>088-099>101-113>116-118-119-134>141-150-180600- ...Southeast Georgia... CITY SKY/WX TMP DP RH WIND PRES REMARKS Savannah Arpt CLEAR 51 48 89 CALM 30.19S Hunter AAF CLEAR 53 49 88 SE3 N/A Fort Stewart PTCLDY 51 47 86 CALM N/A Statesboro CLOUDY 52 46 81 CALM 30.18S Sylvania CLOUDY 55 50 83 CALM 30.19F Claxton FAIR 53 50 92 CALM 30.18F ...CSRA, Central and far Southeast Georgia... CITY SKY/WX TMP DP RH WIND PRES REMARKS Thomson CLOUDY 50 42 75 CALM 30.22F Augusta-Bush CLOUDY 55 42 61 CALM 30.17S Augusta-Daniel CLOUDY 54 41 61 N5 30.18S Swainsboro CLOUDY 59 54 82 CALM 30.17F Vidalia PTCLDY 55 54 94 CALM 30.17F Eastman FAIR 61 52 73 CALM 30.18S Hazlehurst FAIR 62 57 82 SW3 30.15S Alma CLEAR 56 54 93 SE3 30.16F Waycross CLEAR 60 57 91 CALM 30.18S FOG Jesup NOT AVBL Baxley FAIR 54 54 100 S3 30.16F Brunswick CLEAR 61 55 82 SW7 30.19S Saint Simons CLEAR 62 60 93 S9 30.17F $$ SCZ027-028-034-036>038-045-046-048>050-GAZ119-141-180600- ...Lake and Supplemental Coastal Observations... STATION/POSITION TIME TEMP WIND PRES WAVE SWELL AIR SEA DIR/SP/G HT/PER HT/PER/DIR (UTC) (F) (DEG/KT/KT) (MB) (FT/S) (FT/S/D) Winyah Bay NOT AVBL Lake Murray 0420 52 CALM / 2 1021.7R ACE Basin NERRS 0345 53 CALM 1023.0 Fort Pulaski 0448 57 54 230/ 2/ 2 1022.4F Sapelo Island 0400 58 170/ 8 1022.0 $$ ANZ835-935-AMZ111-154-330-350-352-354-370-450-454-472-180600- ...C-MAN and Buoy Observations... STATION/POSITION TIME TEMP WIND PRES WAVE SWELL AIR SEA DIR/SP/G HT/PER HT/PER/DIR (UTC) (F) (DEG/KT/KT) (MB) (FT/S) (FT/S/D) Buoy 41004 0450 71 73 220/ 12/ 16 1022.2S 2/10 2/110/10 Buoy 41008 0450 63 59 170/ 14/ 16 1021.2F 1/10 2/110/10 Folly Beach CMAN 0400 54 350/ 4/ 4 1023.2R Capers Nearshore 0408 53 56 30/ 4/ 4 1022.5S STATION/POSITION TIME TEMP WIND PRES WAVE SWELL AIR SEA DIR/SP/G HT/PER HT/PER/DIR (UTC) (F) (DEG/KT/KT) (MB) (FT/S) (FT/S/D) 5E St. Marys GA 0430 62 N/A 1/11 Frying Pan Buoy 0450 64 67 50/ 4/ 4 1022.6F 2/10 2/120/10 Buoy 41025 0450 62 72 280/ 16/ 19 1022.6F 2/10 2/120/10 Cape Lookout NC 0400 20/ 4/ 5 1023.1F Buoy 41002 0450 69 74 210/ 10/ 12 1024.2F 2/ 9 2/ 60/ 9 Buoy 41010 NOT AVBL St Augustine FL 0500 66 65 200/ 6/ 8 1023.4F $$

USA.gov is the U.S. government's official web portal to all federal, state and local government web resources and services.